| time (UTC) | temp F | wind direction | speed knots | gust knots | rain 1hr in | rain 24hr in | rain mn in | humidity % | barometer mb |
| 20260504130608 | 58 | 285 | 0.9 | 1.7 | 0.00 | 0.00 | 0.00 | 54 | 1014.7 |
| 20260504110537 | 52 | 180 | 0.0 | 0.0 | 0.00 | 0.00 | 0.00 | 67 | 1015.7 |
| 20260504100522 | 52 | 182 | 0.0 | 0.0 | 0.00 | 0.00 | 0.00 | 69 | 1015.5 |
| 20260504081454 | 52 | 201 | 0.0 | 0.0 | 0.00 | 0.00 | 0.00 | 67 | 1015.8 |
| 20260504080452 | 52 | 187 | 0.0 | 0.0 | 0.00 | 0.00 | 0.00 | 67 | 1015.9 |
| 20260504050421 | 51 | 175 | 0.0 | 0.0 | 0.00 | 0.00 | 0.00 | 68 | 1016.1 |
| 20260504045419 | 51 | 175 | 0.0 | 0.0 | 0.00 | 0.00 | 0.00 | 67 | 1016.0 |
| 20260504044419 | 50 | 180 | 0.0 | 0.0 | 0.00 | 0.00 | 0.00 | 68 | 1016.3 |
| 20260504043419 | 49 | 188 | 0.0 | 0.0 | 0.00 | 0.00 | 0.00 | 70 | 1016.3 |
| 20260504042419 | 48 | 188 | 0.0 | 0.0 | 0.00 | 0.00 | 0.00 | 74 | 1016.3 |
| 20260504041418 | 47 | 215 | 0.0 | 0.0 | 0.00 | 0.00 | 0.00 | 76 | 1016.2 |
| 20260504040412 | 46 | 222 | 0.0 | 0.0 | 0.00 | 0.00 | 0.00 | 77 | 1016.2 |
| 20260504035411 | 46 | 222 | 0.0 | 0.0 | 0.00 | 0.00 | 0.00 | 78 | 1015.9 |
| 20260504034411 | 46 | 222 | 0.0 | 0.0 | 0.00 | 0.00 | 0.00 | 78 | 1016.1 |
| 20260504033406 | 46 | 222 | 0.0 | 0.0 | 0.00 | 0.00 | 0.00 | 78 | 1015.9 |
| 20260504032405 | 46 | 222 | 0.0 | 0.0 | 0.00 | 0.00 | 0.00 | 77 | 1015.9 |
| 20260504031405 | 46 | 222 | 0.0 | 0.0 | 0.00 | 0.00 | 0.00 | 77 | 1015.7 |
| 20260504030404 | 46 | 222 | 0.0 | 0.0 | 0.00 | 0.00 | 0.00 | 77 | 1015.8 |
| 20260504025403 | 45 | 222 | 0.0 | 0.0 | 0.00 | 0.00 | 0.00 | 77 | 1015.9 |
| 20260504024402 | 45 | 222 | 0.0 | 0.0 | 0.00 | 0.00 | 0.00 | 77 | 1015.6 |
| 20260504023402 | 45 | 222 | 0.0 | 0.0 | 0.00 | 0.00 | 0.00 | 76 | 1015.8 |
| 20260504022400 | 46 | 222 | 0.0 | 0.0 | 0.00 | 0.00 | 0.00 | 74 | 1015.7 |
| 20260504021359 | 46 | 223 | 0.0 | 0.0 | 0.00 | 0.00 | 0.00 | 74 | 1015.7 |
| 20260504020359 | 46 | 223 | 0.0 | 0.0 | 0.00 | 0.00 | 0.00 | 74 | 1015.8 |
| 20260504015357 | 46 | 223 | 0.0 | 0.0 | 0.00 | 0.00 | 0.00 | 73 | 1015.7 |
| 20260504014355 | 47 | 223 | 0.0 | 0.0 | 0.00 | 0.00 | 0.00 | 72 | 1015.6 |
| 20260504013351 | 47 | 223 | 0.0 | 0.0 | 0.00 | 0.00 | 0.00 | 71 | 1015.6 |
| 20260504012351 | 47 | 223 | 0.0 | 0.0 | 0.00 | 0.00 | 0.00 | 70 | 1015.5 |
| 20260504011350 | 48 | 225 | 0.0 | 0.0 | 0.00 | 0.00 | 0.00 | 68 | 1015.1 |
| 20260504010348 | 49 | 225 | 0.0 | 0.0 | 0.00 | 0.00 | 0.00 | 66 | 1015.5 |
| 20260504005347 | 49 | 225 | 0.0 | 0.0 | 0.00 | 0.00 | 0.00 | 64 | 1015.2 |
| 20260504004343 | 50 | 226 | 0.0 | 0.0 | 0.00 | 0.00 | 0.00 | 62 | 1015.2 |
| 20260504003342 | 51 | 226 | 0.0 | 0.0 | 0.00 | 0.00 | 0.00 | 60 | 1015.1 |
| 20260504002340 | 52 | 226 | 0.0 | 0.0 | 0.00 | 0.00 | 0.00 | 55 | 1015.1 |
| 20260504001340 | 53 | 226 | 0.0 | 0.0 | 0.00 | 0.00 | 0.00 | 52 | 1015.0 |
| 20260504000340 | 55 | 226 | 0.0 | 0.0 | 0.00 | 0.00 | 0.00 | 51 | 1015.0 |
| 20260503235335 | 56 | 227 | 0.0 | 0.0 | 0.00 | 0.00 | 0.00 | 47 | 1014.8 |
| 20260503234330 | 58 | 227 | 0.0 | 0.0 | 0.00 | 0.00 | 0.00 | 43 | 1014.7 |
| 20260503233329 | 60 | 227 | 0.0 | 0.0 | 0.00 | 0.00 | 0.00 | 42 | 1014.7 |
| 20260503232329 | 60 | 277 | 0.0 | 0.9 | 0.00 | 0.00 | 0.00 | 36 | 1014.5 |
| 20260503231330 | 60 | 258 | 0.0 | 0.0 | 0.00 | 0.00 | 0.00 | 35 | 1014.5 |
| 20260503230328 | 60 | 241 | 0.9 | 0.9 | 0.00 | 0.00 | 0.00 | 35 | 1014.6 |
| 20260503225328 | 62 | 278 | 1.7 | 2.6 | 0.00 | 0.00 | 0.00 | 33 | 1014.5 |
| 20260503224327 | 63 | 207 | 0.0 | 0.0 | 0.00 | 0.00 | 0.00 | 33 | 1014.6 |
| 20260503223323 | 64 | 279 | 0.0 | 0.9 | 0.00 | 0.00 | 0.00 | 31 | 1014.6 |
| 20260503222323 | 64 | 228 | 0.0 | 0.9 | 0.00 | 0.00 | 0.00 | 31 | 1014.7 |
| 20260503221319 | 64 | 256 | 0.9 | 0.9 | 0.00 | 0.00 | 0.00 | 31 | 1014.6 |
| 20260503220317 | 65 | 260 | 0.9 | 0.9 | 0.00 | 0.00 | 0.00 | 31 | 1014.7 |
| 20260503215317 | 64 | 279 | 0.9 | 0.9 | 0.00 | 0.00 | 0.00 | 32 | 1014.8 |
| 20260503214312 | 64 | 253 | 0.9 | 0.9 | 0.00 | 0.00 | 0.00 | 31 | 1014.8 |
| 20260503213307 | 64 | 275 | 0.9 | 0.9 | 0.00 | 0.00 | 0.00 | 31 | 1014.5 |
| 20260503212301 | 64 | 288 | 1.7 | 1.7 | 0.00 | 0.00 | 0.00 | 30 | 1014.6 |
| 20260503211301 | 64 | 345 | 1.7 | 2.6 | 0.00 | 0.00 | 0.00 | 30 | 1014.4 |
| 20260503210259 | 65 | 202 | 0.9 | 0.9 | 0.00 | 0.00 | 0.00 | 30 | 1014.5 |
| 20260503205256 | 63 | 288 | 3.5 | 5.2 | 0.00 | 0.00 | 0.00 | 31 | 1014.4 |
| 20260503204257 | 63 | 231 | 1.7 | 1.7 | 0.00 | 0.00 | 0.00 | 31 | 1014.4 |
| 20260503203251 | 63 | 320 | 3.5 | 3.5 | 0.00 | 0.00 | 0.00 | 30 | 1014.6 |
| 20260503202246 | 63 | 248 | 0.9 | 0.9 | 0.00 | 0.00 | 0.00 | 32 | 1014.8 |
| 20260503201247 | 63 | 254 | 1.7 | 2.6 | 0.00 | 0.00 | 0.00 | 31 | 1015.0 |
| 20260503200245 | 63 | 229 | 0.9 | 0.9 | 0.00 | 0.00 | 0.00 | 32 | 1015.1 |
| 20260503195245 | 63 | 235 | 1.7 | 2.6 | 0.00 | 0.00 | 0.00 | 30 | 1015.2 |
| 20260503194244 | 62 | 273 | 0.9 | 1.7 | 0.00 | 0.00 | 0.00 | 34 | 1015.3 |
| 20260503193243 | 62 | 287 | 0.9 | 0.9 | 0.00 | 0.00 | 0.00 | 33 | 1015.4 |
| 20260503192239 | 61 | 246 | 0.9 | 1.7 | 0.00 | 0.00 | 0.00 | 32 | 1015.6 |
| 20260503191234 | 62 | 332 | 1.7 | 1.7 | 0.00 | 0.00 | 0.00 | 31 | 1015.8 |
| 20260503190233 | 62 | 236 | 0.0 | 0.9 | 0.00 | 0.00 | 0.00 | 34 | 1015.7 |
| 20260503185232 | 62 | 262 | 1.7 | 2.6 | 0.00 | 0.00 | 0.00 | 33 | 1015.8 |
| 20260503184229 | 61 | 279 | 1.7 | 2.6 | 0.00 | 0.00 | 0.00 | 32 | 1015.9 |
| 20260503183229 | 60 | 330 | 6.1 | 11.3 | 0.00 | 0.00 | 0.00 | 32 | 1016.0 |
| 20260503182225 | 59 | 342 | 1.7 | 2.6 | 0.00 | 0.00 | 0.00 | 34 | 1015.9 |
| 20260503181224 | 59 | 207 | 1.7 | 1.7 | 0.00 | 0.00 | 0.00 | 34 | 1016.1 |
| 20260503180219 | 60 | 332 | 1.7 | 1.7 | 0.00 | 0.00 | 0.00 | 35 | 1016.2 |
| 20260503175219 | 59 | 290 | 1.7 | 1.7 | 0.00 | 0.00 | 0.00 | 37 | 1016.1 |
| 20260503174218 | 59 | 354 | 0.9 | 0.9 | 0.00 | 0.00 | 0.00 | 35 | 1016.0 |
| 20260503173215 | 57 | 70 | 0.9 | 0.9 | 0.00 | 0.00 | 0.00 | 37 | 1016.2 |
| 20260503172215 | 57 | 173 | 0.9 | 0.9 | 0.00 | 0.00 | 0.00 | 38 | 1016.1 |
| 20260503171214 | 56 | 52 | 1.7 | 1.7 | 0.00 | 0.00 | 0.00 | 35 | 1016.5 |
| 20260503170214 | 57 | 262 | 7.0 | 7.8 | 0.00 | 0.00 | 0.00 | 36 | 1016.6 |
| 20260503160159 | 54 | 277 | 1.7 | 1.7 | 0.00 | 0.00 | 0.00 | 40 | 1016.8 |
| 20260503150142 | 51 | 332 | 3.5 | 3.5 | 0.00 | 0.00 | 0.00 | 41 | 1016.9 |
| 20260503140135 | 50 | 310 | 2.6 | 3.5 | 0.00 | 0.00 | 0.00 | 47 | 1016.8 |